When you browse on this site, cookies collect data to enhance your experience and personalize the content and advertising you see.
Visit our Privacy Policy to learn more. By continuing to use the site, you agree to this use of cookies and data.
  • In Hungary
  • List of Countries
  • For 7 days
  • Water Temperature
  • Weather Map
  • News
  • Weather Widgets
  • user-avatar
    Login

    Hourly Weather Kumkent

    Today, 3 April, Friday

    Time Temperature Precipitation Wind Pressure Humidity
    00:00 +10°C° 0 mm 2 mps 715 mmHg 63%
    01:00 +10°C° 0 mm 2 mps 715 mmHg 62%
    02:00 +10°C° 0 mm 2 mps 714 mmHg 61%
    03:00 +10°C° 0 mm 3 mps 714 mmHg 57%
    04:00 +10°C° 0 mm 3 mps 714 mmHg 54%
    05:00 +10°C° 0 mm 3 mps 714 mmHg 50%
    06:00 +11°C° 0 mm 3 mps 714 mmHg 49%
    07:00 +12°C° 0 mm 3 mps 715 mmHg 49%
    08:00 +13°C° 0 mm 3 mps 715 mmHg 48%
    09:00 +17°C° 0 mm 3 mps 715 mmHg 43%
    10:00 +19°C° 0 mm 3 mps 715 mmHg 37%
    11:00 +21°C° 0 mm 3 mps 715 mmHg 31%
    12:00 +23°C° 0 mm 2 mps 715 mmHg 29%
    13:00 +23°C° 0 mm 2 mps 715 mmHg 26%
    14:00 +24°C° 0 mm 1 mps 715 mmHg 23%
    15:00 +23°C° 0 mm 2 mps 715 mmHg 28%
    16:00 +21°C° 0 mm 2 mps 714 mmHg 33%
    17:00 +20°C° 0 mm 2 mps 714 mmHg 39%
    18:00 +18°C° 0 mm 2 mps 714 mmHg 41%
    19:00 +17°C° 0 mm 2 mps 714 mmHg 44%
    20:00 +15°C° 0 mm 2 mps 714 mmHg 47%
    21:00 +15°C° 0 mm 2 mps 714 mmHg 49%
    22:00 +14°C° 0 mm 2 mps 714 mmHg 51%
    23:00 +14°C° 0 mm 2 mps 714 mmHg 53%

    Tomorrow, 4 April, Saturday

    Time Temperature Precipitation Wind Pressure Humidity
    00:00 +14°C° 0 mm 2 mps 714 mmHg 52%
    01:00 +14°C° 0 mm 2 mps 714 mmHg 51%
    02:00 +13°C° 0 mm 3 mps 714 mmHg 50%
    03:00 +13°C° 0 mm 3 mps 714 mmHg 50%
    04:00 +13°C° 0 mm 3 mps 714 mmHg 49%
    05:00 +13°C° 0 mm 3 mps 713 mmHg 49%
    06:00 +14°C° 0 mm 3 mps 714 mmHg 49%
    07:00 +16°C° 0 mm 3 mps 714 mmHg 50%
    08:00 +18°C° 0 mm 3 mps 714 mmHg 50%
    09:00 +20°C° 0 mm 2 mps 714 mmHg 44%
    10:00 +23°C° 0 mm 2 mps 714 mmHg 37%
    11:00 +25°C° 0 mm 2 mps 715 mmHg 31%
    12:00 +26°C° 0 mm 2 mps 714 mmHg 28%
    13:00 +26°C° 0 mm 2 mps 714 mmHg 26%
    14:00 +27°C° 0 mm 2 mps 714 mmHg 24%
    15:00 +26°C° 0 mm 2 mps 713 mmHg 28%
    16:00 +26°C° 0 mm 2 mps 713 mmHg 33%
    17:00 +25°C° 0 mm 2 mps 713 mmHg 38%
    18:00 +23°C° 0 mm 2 mps 713 mmHg 39%
    19:00 +21°C° 0 mm 1 mps 713 mmHg 40%
    20:00 +19°C° 0 mm 1 mps 712 mmHg 41%
    21:00 +18°C° 0 mm 1 mps 712 mmHg 43%
    22:00 +18°C° 0 mm 1 mps 712 mmHg 44%
    23:00 +16°C° 0 mm 1 mps 713 mmHg 46%

    Day after tomorrow, 5 April, Sunday

    Time Temperature Precipitation Wind Pressure Humidity
    00:00 +16°C° 0 mm 1 mps 713 mmHg 48%
    01:00 +16°C° 0 mm 2 mps 713 mmHg 50%
    02:00 +15°C° 0 mm 2 mps 713 mmHg 52%
    03:00 +15°C° 0 mm 2 mps 713 mmHg 54%
    04:00 +15°C° 0 mm 2 mps 713 mmHg 57%
    05:00 +15°C° 0 mm 2 mps 714 mmHg 59%
    06:00 +15°C° 0.1 mm 2 mps 714 mmHg 65%
    07:00 +14°C° 0.1 mm 2 mps 715 mmHg 71%
    08:00 +14°C° 0.1 mm 2 mps 715 mmHg 77%
    09:00 +14°C° 0.7 mm 2 mps 715 mmHg 80%
    10:00 +14°C° 0.7 mm 2 mps 715 mmHg 84%
    11:00 +14°C° 0.7 mm 2 mps 715 mmHg 87%
    12:00 +14°C° 0.1 mm 2 mps 715 mmHg 82%
    13:00 +15°C° 0.1 mm 1 mps 715 mmHg 78%
    14:00 +16°C° 0.1 mm 1 mps 715 mmHg 73%
    15:00 +16°C° 0 mm 1 mps 715 mmHg 71%
    16:00 +16°C° 0 mm 2 mps 715 mmHg 69%
    17:00 +17°C° 0 mm 2 mps 715 mmHg 67%
    18:00 +15°C° 0 mm 1 mps 715 mmHg 72%
    19:00 +14°C° 0 mm 1 mps 715 mmHg 76%
    20:00 +13°C° 0 mm 1 mps 715 mmHg 81%
    21:00 +13°C° 0 mm 1 mps 715 mmHg 80%
    22:00 +13°C° 0 mm 1 mps 715 mmHg 80%
    23:00 +13°C° 0 mm 1 mps 715 mmHg 79%

    6 April, Monday

    Time Temperature Precipitation Wind Pressure Humidity
    00:00 +12°C° 0 mm 1 mps 715 mmHg 80%
    01:00 +11°C° 0 mm 0 mps 714 mmHg 81%
    02:00 +10°C° 0 mm 0 mps 714 mmHg 83%
    03:00 +11°C° 0 mm 1 mps 714 mmHg 83%
    04:00 +11°C° 0 mm 1 mps 714 mmHg 84%
    05:00 +11°C° 0 mm 1 mps 714 mmHg 84%
    06:00 +12°C° 0 mm 1 mps 714 mmHg 80%
    07:00 +13°C° 0 mm 1 mps 715 mmHg 76%
    08:00 +14°C° 0 mm 1 mps 715 mmHg 71%
    09:00 +16°C° 0 mm 1 mps 715 mmHg 65%
    10:00 +19°C° 0 mm 1 mps 715 mmHg 58%
    11:00 +21°C° 0 mm 1 mps 715 mmHg 52%
    12:00 +20°C° 0 mm 2 mps 715 mmHg 49%
    13:00 +21°C° 0 mm 2 mps 715 mmHg 47%
    14:00 +22°C° 0 mm 3 mps 715 mmHg 44%
    15:00 +21°C° 0 mm 2 mps 714 mmHg 44%
    16:00 +21°C° 0 mm 2 mps 714 mmHg 44%
    17:00 +21°C° 0 mm 2 mps 714 mmHg 44%
    18:00 +19°C° 0 mm 2 mps 714 mmHg 46%
    19:00 +18°C° 0 mm 1 mps 714 mmHg 48%
    20:00 +15°C° 0 mm 1 mps 713 mmHg 51%
    21:00 +15°C° 0 mm 1 mps 713 mmHg 52%
    22:00 +14°C° 0 mm 1 mps 713 mmHg 54%
    23:00 +14°C° 0 mm 1 mps 713 mmHg 56%

    7 April, Tuesday

    Time Temperature Precipitation Wind Pressure Humidity
    00:00 +14°C° 0 mm 1 mps 712 mmHg 59%
    01:00 +13°C° 0 mm 1 mps 712 mmHg 61%
    02:00 +13°C° 0 mm 1 mps 711 mmHg 64%
    03:00 +13°C° 0 mm 1 mps 712 mmHg 63%
    04:00 +13°C° 0 mm 1 mps 712 mmHg 63%
    05:00 +13°C° 0 mm 2 mps 712 mmHg 63%
    06:00 +15°C° 0 mm 2 mps 712 mmHg 60%
    07:00 +16°C° 0 mm 2 mps 712 mmHg 58%
    08:00 +18°C° 0 mm 2 mps 713 mmHg 56%
    09:00 +20°C° 0 mm 2 mps 713 mmHg 51%
    10:00 +22°C° 0 mm 3 mps 713 mmHg 47%
    11:00 +25°C° 0 mm 4 mps 713 mmHg 42%
    12:00 +25°C° 0 mm 4 mps 713 mmHg 41%
    13:00 +25°C° 0 mm 5 mps 713 mmHg 41%
    14:00 +26°C° 0 mm 5 mps 712 mmHg 40%
    15:00 +25°C° 0 mm 5 mps 712 mmHg 44%
    16:00 +25°C° 0 mm 4 mps 712 mmHg 48%
    17:00 +23°C° 0 mm 4 mps 711 mmHg 52%
    18:00 +21°C° 0 mm 3 mps 712 mmHg 55%
    19:00 +19°C° 0 mm 2 mps 712 mmHg 59%
    20:00 +18°C° 0 mm 1 mps 712 mmHg 62%
    21:00 +18°C° 0 mm 1 mps 712 mmHg 62%
    22:00 +18°C° 0 mm 1 mps 712 mmHg 62%
    23:00 +18°C° 0 mm 1 mps 712 mmHg 62%

    8 April, Wednesday

    Time Temperature Precipitation Wind Pressure Humidity
    00:00 +16°C° 0 mm 2 mps 712 mmHg 65%
    01:00 +15°C° 0 mm 2 mps 712 mmHg 67%
    02:00 +14°C° 0 mm 2 mps 711 mmHg 70%
    03:00 +14°C° 0 mm 2 mps 711 mmHg 72%
    04:00 +13°C° 0 mm 2 mps 711 mmHg 75%
    05:00 +13°C° 0 mm 2 mps 711 mmHg 77%
    06:00 +12°C° 0 mm 3 mps 711 mmHg 79%
    07:00 +11°C° 0 mm 4 mps 711 mmHg 81%
    08:00 +10°C° 0 mm 5 mps 711 mmHg 83%
    09:00 +10°C° 0 mm 5 mps 711 mmHg 82%
    10:00 +11°C° 0 mm 4 mps 711 mmHg 81%
    11:00 +11°C° 0 mm 4 mps 711 mmHg 80%
    12:00 +8°C° 0.5 mm 5 mps 712 mmHg 84%
    13:00 +6°C° 0.5 mm 5 mps 712 mmHg 89%
    14:00 +5°C° 0.5 mm 5 mps 713 mmHg 93%
    15:00 +2°C° 2.8 mm 5 mps 714 mmHg 95%
    16:00 +1°C° 2.8 mm 4 mps 714 mmHg 96%
    17:00 +1°C° 2.8 mm 3 mps 715 mmHg 98%
    18:00 0°C° 3.3 mm 3 mps 716 mmHg 98%
    19:00 -1°C° 3.3 mm 2 mps 717 mmHg 99%
    20:00 -1°C° 3.3 mm 2 mps 717 mmHg 99%
    21:00 -1°C° 1.7 mm 2 mps 718 mmHg 99%
    22:00 -1°C° 1.7 mm 2 mps 719 mmHg 99%
    23:00 -1°C° 1.7 mm 2 mps 719 mmHg 99%
    Show more